Branson, MO

8:59 AM CDT on April 23, 2017 (GMT -0500)
Branson

Weather History for KBBG - January, 2013

Change the Weather History Date:

Tuesday, January 29, 2013

  Actual Average (KHRO) Record (KHRO)
Temperature  
Mean Temperature 59 °F -  
Max Temperature 68 °F 47 °F 76 °F (2011)
Min Temperature 50 °F 27 °F -2 °F (1966)
Degree Days  
Heating Degree Days 6    
Growing Degree Days 9 (Base 50)    
Moisture  
Dew Point 55 °F    
Average Humidity 85    
Maximum Humidity 100    
Minimum Humidity 73    
Precipitation  
Precipitation 0.33 in - - ()
Sea Level Pressure  
Sea Level Pressure 29.68 in    
Wind  
Wind Speed 11 mph (South)    
Max Wind Speed 24 mph    
Max Gust Speed 34 mph    
Visibility 7 miles    
Events Rain , Thunderstorm    
Averages and records for this station are not official NWS values.
T = Trace of Precipitation, MM = Missing Value Source: NWS Daily Summary

Daily Weather History Graph

Daily Weather History Graph

Search for Another Location

Airport or City:

Trip Planner

Search our weather history database for the weather conditions in past years. The results will help you decide how hot, cold, wet, or windy it might be!

Date:

Astronomy

Jan. 29, 2013 Rise Set
Actual Time 7:16 AM CST 5:35 PM CST
Civil Twilight 6:49 AM CST 6:03 PM CST
Nautical Twilight 6:18 AM CST 6:34 PM CST
Astronomical Twilight 5:47 AM CST 7:04 PM CST
Moon 8:26 PM CST (1/29) 8:19 AM CST (1/29)
Length of Visible Light 11h 14m
Length of Day
10h 19m
Waning Gibbous, 93% of the Moon is Illuminated
Jan 29
Waning Gibbous
Feb 3
Last Quarter
Feb 10
New
Feb 17
First Quarter
Feb 25
Full

Hourly Weather History & Observations

Time (CST) Temp. Dew Point Humidity Pressure Visibility Wind Dir Wind Speed Gust Speed Precip Events Conditions
12:15 AM 64.4 °F 57.2 °F 77% 29.87 in 10.0 mi SSE 11.5 mph 17.3 mph N/A   Overcast
12:35 AM 66.2 °F 57.2 °F 73% 29.87 in 10.0 mi SSE 10.4 mph - N/A   Overcast
12:55 AM 66.2 °F 57.2 °F 73% 29.86 in 10.0 mi South 11.5 mph 16.1 mph N/A   Overcast
1:15 AM 66.2 °F 57.2 °F 73% 29.86 in 10.0 mi SSE 11.5 mph 16.1 mph N/A   Overcast
1:35 AM 66.2 °F 57.2 °F 73% 29.84 in 10.0 mi SSE 12.7 mph 19.6 mph N/A   Overcast
1:55 AM 66.2 °F 57.2 °F 73% 29.84 in 10.0 mi South 9.2 mph 17.3 mph N/A   Overcast
2:15 AM 66.2 °F 57.2 °F 73% 29.84 in 10.0 mi South 9.2 mph - N/A   Overcast
2:35 AM 66.2 °F 57.2 °F 73% 29.84 in 10.0 mi South 10.4 mph - N/A   Overcast
2:55 AM 66.2 °F 57.2 °F 73% 29.83 in 10.0 mi South 9.2 mph 16.1 mph N/A   Overcast
3:15 AM 66.2 °F 57.2 °F 73% 29.83 in 10.0 mi South 9.2 mph - N/A   Overcast
3:35 AM 66.2 °F 57.2 °F 73% 29.83 in 10.0 mi South 8.1 mph - N/A   Overcast
3:55 AM 66.2 °F 57.2 °F 73% 29.82 in 10.0 mi South 9.2 mph 17.3 mph N/A   Overcast
4:15 AM 66.2 °F 57.2 °F 73% 29.81 in 10.0 mi South 9.2 mph - N/A   Mostly Cloudy
4:35 AM 64.4 °F 57.2 °F 77% 29.81 in 10.0 mi South 9.2 mph - N/A   Scattered Clouds
4:55 AM 64.4 °F 57.2 °F 77% 29.80 in 10.0 mi South 11.5 mph 17.3 mph N/A   Partly Cloudy
5:15 AM 66.2 °F 57.2 °F 73% 29.80 in 10.0 mi South 11.5 mph 19.6 mph N/A   Scattered Clouds
5:35 AM 66.2 °F 57.2 °F 73% 29.80 in 10.0 mi South 9.2 mph 16.1 mph N/A   Mostly Cloudy
6:50 AM 64.4 °F 57.2 °F 77% 29.78 in 10.0 mi SSE 13.8 mph 18.4 mph N/A   Overcast
7:52 AM 64.4 °F 57.2 °F 77% 29.75 in 10.0 mi SSE 13.8 mph 21.9 mph N/A   Overcast
8:46 AM 64.4 °F 59.0 °F 83% 29.74 in 10.0 mi South 17.3 mph 25.3 mph N/A   Overcast
9:52 AM 66.2 °F 59.0 °F 78% 29.72 in 10.0 mi South 20.7 mph 29.9 mph N/A   Overcast
10:50 AM 68.0 °F 59.0 °F 73% 29.69 in 10.0 mi South 24.2 mph 34.5 mph N/A   Overcast
11:48 AM 68.0 °F 59.0 °F 73% 29.65 in 10.0 mi South 18.4 mph 31.1 mph N/A   Overcast
12:47 PM 66.2 °F 59.0 °F 78% 29.58 in 10.0 mi SSE 17.3 mph 25.3 mph N/A   Overcast
1:14 PM 64.4 °F 60.8 °F 88% 29.57 in 5.0 mi South 19.6 mph 27.6 mph N/A Rain , Thunderstorm Light Thunderstorms and Rain
1:50 PM 62.6 °F 60.8 °F 94% 29.56 in 3.0 mi South 9.2 mph - N/A Rain , Thunderstorm Light Thunderstorms and Rain
2:45 PM 62.6 °F 59.0 °F 88% 29.55 in 3.0 mi South 6.9 mph - N/A Rain , Thunderstorm Light Thunderstorms and Rain
3:50 PM 60.8 °F 60.8 °F 100% 29.49 in 7.0 mi ESE 9.2 mph - N/A   Overcast
4:45 PM 53.6 °F 53.6 °F 100% 29.50 in 0.5 mi NNW 23.0 mph 31.1 mph N/A Rain , Thunderstorm Heavy Thunderstorms and Rain
5:20 PM 53.6 °F 53.6 °F 100% 29.51 in 3.0 mi NW 13.8 mph 18.4 mph N/A Rain , Thunderstorm Heavy Thunderstorms and Rain
5:54 PM 53.6 °F 53.6 °F 100% 29.56 in 2.5 mi NNW 4.6 mph - N/A Rain , Thunderstorm Thunderstorms and Rain
6:53 PM 51.8 °F 51.8 °F 100% 29.58 in 6.0 mi WNW 5.8 mph - N/A Rain Light Rain
7:45 PM 51.8 °F 51.8 °F 100% 29.55 in 3.0 mi Calm Calm - N/A Rain Rain
7:55 PM 51.8 °F 51.8 °F 100% 29.55 in 8.0 mi Calm Calm - 0.13 in Rain Light Rain
8:15 PM 50.0 °F 50.0 °F 100% 29.53 in 4.0 mi Calm Calm - N/A Rain Light Rain
8:35 PM 50.0 °F 50.0 °F 100% 29.51 in 5.0 mi East 4.6 mph - N/A Rain Light Rain
8:55 PM 50.0 °F 50.0 °F 100% 29.52 in 4.0 mi East 5.8 mph - N/A Rain Light Rain
9:15 PM 50.0 °F 50.0 °F 100% 29.52 in 2.5 mi SE 5.8 mph - 0.03 in Rain Light Rain
9:35 PM 50.0 °F 50.0 °F 100% 29.53 in 3.0 mi SE 6.9 mph - 0.08 in Rain Rain
9:55 PM 50.0 °F 50.0 °F 100% 29.53 in 2.0 mi SE 8.1 mph - 0.13 in Rain Rain
10:15 PM 50.0 °F 50.0 °F 100% 29.53 in 3.0 mi SSE 6.9 mph - 0.02 in Rain Light Rain
10:35 PM 50.0 °F 50.0 °F 100% 29.55 in 4.0 mi South 5.8 mph - 0.04 in Rain Light Rain
10:55 PM 50.0 °F 50.0 °F 100% 29.55 in 2.5 mi SSW 9.2 mph - 0.07 in Rain Light Rain
11:15 PM 50.0 °F 48.2 °F 94% 29.54 in 9.0 mi West 6.9 mph 29.9 mph N/A Rain Light Rain